Location: Marcé
(47.5801°N, 0.3280°W)
Time: 08:42:43
(UTC+01:00)

Explorer 7 - Pass Details

Date: 09 December 2021
Orbit: 483 x 674 km, 50.3° (Epoch: 24 January)

Event Time Altitude Azimuth Distance (km) Brightness Sun altitude
Rises 11:35:03 0° 282° (WNW) 2,655 10.0 17.4°
Reaches altitude 10° 11:38:20 10° 254° (WSW) 1,723 9.4 17.5°
Maximum altitude 11:40:07 13° 227° (SW) 1,532 9.5 17.6°
Drops below altitude 10° 11:41:52 10° 199° (SSW) 1,686 10.3 17.7°
Sets 11:45:00 0° 170° (S) 2,541 11.9 17.9°
